Location: Recife
(8.0585°S, 34.8848°W)
Time: 10:45:25
(UTC-03:00)

SR - Pass Details

Date: 20 April 2026
Orbit: 568 x 852 km, 66.7° (Epoch: 12 May)

Event Time Altitude Azimuth Distance (km) Brightness Sun altitude
Rises 10:43:35 0° 199° (SSW) 2,774 ? 68.5°
Reaches altitude 10° 10:45:48 10° 199° (SSW) 1,870 ? 68.7°
Maximum altitude 10:49:58 84° 112° (ESE) 580 ? 69.1°
Drops below altitude 10° 10:54:12 10° 22° (NNE) 1,904 ? 69.4°
Sets 10:56:28 0° 21° (NNE) 2,829 ? 69.5°
